Regional Weather Roundup
Issued by NWS

Home | Current Version | Previous Version | Graphics & Text | Print | Product List | Glossary Off
Versions: 1 2 3 4 5 6 7 8 9 10 11 12 13 14 15 16 17 18 19 20 21 22 23 24 25 26 27 28 29 30 31 32 33 34 35 36 37 38 39 40 41 42 43 44 45 46 47 48 49 50

000
ASUS43 KMKX 200521
RWRWI

WISCONSIN REGIONAL WEATHER ROUNDUP
NATIONAL WEATHER SERVICE MILWAUKEE/SULLIVAN WI
1200 AM CDT THU JUL 20 2017

NOTE: "FAIR" INDICATES FEW OR NO CLOUDS BELOW 12,000 FEET WITH NO
SIGNIFICANT WEATHER AND/OR OBSTRUCTIONS TO VISIBILITY.

WIZ001-002-006>008-014>016-023>028-200600-
NORTHWEST WISCONSIN

CITY           SKY/WX    TMP DP  RH WIND       PRES   REMARKS
SUPERIOR ARPT  NOT AVBL
ASHLAND        PTCLDY    59  58  96 SW3       29.93R
HAYWARD        PTCLDY    62  59  90 CALM      29.94F
SIREN          CLOUDY    66  61  85 CALM      29.94F
CUMBERLAND     CLOUDY    63  61  94 CALM      29.95S
RICE LAKE      CLOUDY    65  63  94 CALM      29.95F
CHETEK         CLOUDY    65  64  94 MISG      29.95R
LADYSMITH      CLOUDY    66  62  85 CALM      29.97S
EAU CLAIRE     CLOUDY    68  66  93 CALM      29.92F
MENOMONIE      RAIN      67  67  98 E7        29.91F
NEW RICHMOND   RAIN      67  65  95 W3        29.97S
OSCEOLA        CLOUDY    67  67 100 CALM      29.97F
$$

WIZ003>005-009-010-017-018-200600-
NORTH CENTRAL WISCONSIN

CITY           SKY/WX    TMP DP  RH WIND       PRES   REMARKS
MANITOWISH WTR PTCLDY    61  61  99 S6        29.96R
ARBOR VITAE    CLOUDY    65  58  78 CALM      29.96S
WOODRUFF       CLOUDY    65  58  78 CALM      29.96S
RHINELANDER    CLOUDY    63  60  90 CALM      29.98S
EAGLE RIVER    CLOUDY    61  55  80 CALM      29.96S
LAND O LAKES   PTCLDY    59  57  94 CALM      29.99R
PHILLIPS       CLOUDY    63  62  95 CALM      29.96R
TOMAHAWK         N/A     62  60  93 CALM      29.99R
MEDFORD        CLOUDY    64  61  90 CALM      29.97S
MERRILL        CLOUDY    64  62  91 CALM      29.98S
$$

WIZ029-030-035-036-043>047-200600-
CENTRAL WISCONSIN

CITY           SKY/WX    TMP DP  RH WIND       PRES   REMARKS
WAUSAU         CLOUDY    69  61  75 S3        29.96R
MOSINEE        CLOUDY    66  64  94 S3        29.97F
MARSHFIELD     CLOUDY    66  64  93 SW5       29.97S
STEVENS POINT  CLOUDY    69  66  90 SW7       29.97F
WAUPACA        CLOUDY    73  69  86 W9        29.97R
WAUTOMA        LGT RAIN  71  67  87 W6        29.98R
WISC RAPIDS    CLOUDY    69  67  93 SW6       29.98F
CAMP DOUGLAS   TSTM      68  66  94 W12G17    30.02R
$$

WIZ011>013-019>022-031-037>040-048>050-200600-
NORTHEAST WISCONSIN

CITY           SKY/WX    TMP DP  RH WIND       PRES   REMARKS
ANTIGO         CLOUDY    64  59  84 S7        29.98S
SHAWANO        CLOUDY    70  52  52 CALM      29.96R
OCONTO         CLOUDY    68  55  62 SE6       29.93F
STURGEON BAY     N/A     66  60  81 SE5       29.96S
GREEN BAY      CLOUDY    68  56  65 S5        29.95R
MANITOWOC      CLOUDY    69  58  67 SE8       29.94F
APPLETON       CLOUDY    70  61  73 SW6       29.96R
CLINTONVILLE   CLOUDY    66  55  68 CALM      29.96S
OSHKOSH        CLOUDY    72  66  81 W3        29.97R
$$

WIZ032>034-041-042-053>061-200600-
SOUTHWEST WISCONSIN

CITY           SKY/WX    TMP DP  RH WIND       PRES   REMARKS
LA CROSSE      LGT RAIN  70  69  97 E14       29.99F FOG
SPARTA         TSTM      65  64  98 SW5       30.04R
VIROQUA          N/A    N/A N/A N/A N12       30.07
BOSCOBEL       CLOUDY    73  66  78 CALM      29.98F
PRAIRIE DU CHI CLOUDY    69  65  85 CALM      29.97S
PLATTEVILLE    CLOUDY    70  69  95 SE9       30.02F
$$

WIZ056-057-062-063-064-067-068-200600-
SOUTH CENTRAL WISCONSIN

CITY           SKY/WX    TMP DP  RH WIND       PRES   REMARKS
REEDSBURG      CLOUDY    69  69 100 NW7       30.02R
BARABOO/DELLS  RAIN      69  66  91 SW8       30.00F
LONE ROCK      CLOUDY    70  67  90 SE7       30.00F
MINERAL POINT  CLOUDY    70  70 100 SE9       30.03S
MADISON        LGT RAIN  70  66  87 SW8G17    30.02R
MIDDLETON      CLOUDY    69  69 100 SW6       30.02F
WATERTOWN      CLOUDY    69  69 100 SW3       29.94R
MONROE         CLOUDY    68  64  88 N5        30.05R
JANESVILLE     CLOUDY    68  68 100 W10       30.00R
$$

WIZ051-052-058>065-066-070>072-200600-
SOUTHEAST WISCONSIN

CITY           SKY/WX    TMP DP  RH WIND       PRES   REMARKS
MILWAUKEE      CLOUDY    70  67  90 SW14G25   29.89F
WAUKESHA       CLOUDY    64  64 100 S9        29.93R
MILWAUKEE/TIMM CLOUDY    68  63  83 SW8       29.92R
RACINE         CLOUDY    68  67  96 S17G28    29.90F
KENOSHA        CLOUDY    68  66  93 SW12      29.94F
FOND DU LAC    CLOUDY    71  61  70 NW5       29.98R
SHEBOYGAN      CLOUDY    71  62  73 W7        29.93R
WEST BEND      CLOUDY    68  64  88 SW9G18    29.92S
JUNEAU         CLOUDY    66  64  92 W18G25    30.00R
$$

LSZ147-162-200600-
LAKE SUPERIOR

STATION/POSITION TIME  TEMP    WIND        PRES    WAVE
                       AIR SEA DIR/SP/G            HT/PER
                 (UTC) (F)     (DEG/KT/KT) (MB)    (FT/S)
W MID LAKE BUOY  0450   53 47   70/  6/  6 1012.7F   0
DEVILS ISLAND    0500   59      80/  7/  7 1012.8F
SAXON HARBOR     0430   64     190/  3/  5 1012.5S
$$

LMZ867-665-643>646-200600-
LAKE MICHIGAN

STATION/POSITION TIME  TEMP    WIND        PRES    WAVE
                       AIR SEA DIR/SP/G            HT/PER
                 (UTC) (F)     (DEG/KT/KT) (MB)    (FT/S)
CHAMBERS ISLAND  0440   65     110/  3/  4 1013.5F
S GREEN BAY BUOY 0500   71 71  130/  8/ 12 1013.5
N MID LAKE BUOY  0450   68 65  120/  6/  6 1015.1F   0
NORTHPORT PIER   0500   67     180/  4/ 12 1013.9
KEWAUNEE LAKESHO 0454   70     130/  4/  6 1013.5R
SHEBOYGAN LAKESH 0500   72     220/  2/  3 1013.0R
PORT WASHINGTON  0430   69     240/ 13/ 22 1012.9R
ATWATER BUOY     0409   68 68  180/ 29/ 37 1010.0F
MILWAUKEE LAKESH 0500   72     200/ 13/ 15   N/A
S MID LAKE BUOY  0450   70 70  280/ 21/ 25 1016.3F   1/ 3
KENOSHA   LAKESH 0500   68     170/ 32/ 34 1011.2
$$

TC  - TEMPERATURE IN CELSIUS
VSB - VISIBILITY IN STATUTE MILES
WCI - WIND CHILL INDEX
HX  - HEAT INDEX





USA.gov is the U.S. government's official web portal to all federal, state and local government web resources and services.